• In India
  • List of Countries
  • For 7 days
  • Water Temperature
  • Satellite Maps
  • Weather Map
  • Weather Widgets
  • user-avatar
    Login

    Hourly Weather Vista Hermosa

    Today, 25 May, Friday

    Time Temperature Precipitation Wind Pressure Humidity
    00:00 +24°C° 3.2 mm 0 mps 740 mmHg 90%
    01:00 +23°C° 0 mm 0 mps 740 mmHg 89%
    02:00 +23°C° 2.2 mm 0 mps 739 mmHg 89%
    03:00 +25°C° 2.2 mm 1 mps 739 mmHg 90%
    04:00 +25°C° 2.2 mm 1 mps 739 mmHg 90%
    05:00 +25°C° 2.4 mm 1 mps 739 mmHg 89%
    06:00 +25°C° 2.4 mm 1 mps 740 mmHg 89%
    07:00 +25°C° 2.4 mm 1 mps 740 mmHg 88%
    08:00 +26°C° 4.1 mm 1 mps 740 mmHg 89%
    09:00 +26°C° 4.1 mm 1 mps 741 mmHg 90%
    10:00 +26°C° 4.1 mm 1 mps 741 mmHg 91%
    11:00 +26°C° 3.7 mm 1 mps 740 mmHg 91%
    12:00 +26°C° 3.7 mm 1 mps 740 mmHg 92%
    13:00 +26°C° 3.7 mm 1 mps 740 mmHg 93%
    14:00 +27°C° 2.2 mm 1 mps 739 mmHg 91%
    15:00 +27°C° 2.2 mm 1 mps 739 mmHg 89%
    16:00 +27°C° 2.2 mm 1 mps 738 mmHg 87%
    17:00 +26°C° 1.3 mm 1 mps 738 mmHg 90%
    18:00 +26°C° 1.3 mm 1 mps 738 mmHg 92%
    19:00 +25°C° 1.3 mm 1 mps 738 mmHg 94%
    20:00 +25°C° 1 mm 1 mps 739 mmHg 93%
    21:00 +24°C° 1 mm 1 mps 739 mmHg 93%
    22:00 +24°C° 1 mm 1 mps 740 mmHg 92%
    23:00 +24°C° 1.9 mm 1 mps 740 mmHg 92%

    Tomorrow, 26 May, Saturday

    Time Temperature Precipitation Wind Pressure Humidity
    00:00 +24°C° 1.9 mm 1 mps 739 mmHg 92%
    01:00 +22°C° 1.9 mm 0 mps 739 mmHg 92%
    02:00 +22°C° 3.5 mm 0 mps 739 mmHg 92%
    03:00 +22°C° 3.5 mm 0 mps 739 mmHg 93%
    04:00 +22°C° 3.5 mm 0 mps 738 mmHg 93%
    05:00 +22°C° 3.5 mm 0 mps 739 mmHg 94%
    06:00 +22°C° 3.5 mm 0 mps 739 mmHg 95%
    07:00 +22°C° 3.5 mm 0 mps 740 mmHg 96%
    08:00 +25°C° 3 mm 1 mps 740 mmHg 91%
    09:00 +26°C° 3 mm 1 mps 740 mmHg 87%
    10:00 +27°C° 3 mm 1 mps 741 mmHg 83%
    11:00 +27°C° 2.9 mm 1 mps 740 mmHg 84%
    12:00 +27°C° 2.9 mm 1 mps 740 mmHg 86%
    13:00 +27°C° 2.9 mm 1 mps 739 mmHg 88%
    14:00 +27°C° 2.7 mm 1 mps 739 mmHg 88%
    15:00 +26°C° 2.7 mm 1 mps 738 mmHg 88%
    16:00 +26°C° 2.7 mm 1 mps 737 mmHg 89%
    17:00 +26°C° 1.3 mm 1 mps 738 mmHg 90%
    18:00 +25°C° 1.3 mm 1 mps 738 mmHg 91%
    19:00 +23°C° 1.3 mm 0 mps 738 mmHg 93%
    20:00 +25°C° 1.1 mm 1 mps 739 mmHg 92%
    21:00 +25°C° 1.1 mm 1 mps 739 mmHg 91%
    22:00 +24°C° 1.1 mm 1 mps 739 mmHg 90%
    23:00 +24°C° 1.5 mm 1 mps 739 mmHg 90%

    Day after tomorrow, 27 May, Sunday

    Time Temperature Precipitation Wind Pressure Humidity
    00:00 +24°C° 1.5 mm 1 mps 739 mmHg 90%
    01:00 +24°C° 1.5 mm 1 mps 738 mmHg 90%
    02:00 +24°C° 1.7 mm 1 mps 738 mmHg 89%
    03:00 +24°C° 1.7 mm 1 mps 738 mmHg 89%
    04:00 +24°C° 1.7 mm 1 mps 738 mmHg 89%
    05:00 +24°C° 2.2 mm 1 mps 738 mmHg 88%
    06:00 +25°C° 2.2 mm 1 mps 739 mmHg 88%
    07:00 +23°C° 2.2 mm 0 mps 739 mmHg 87%
    08:00 +26°C° 2.2 mm 1 mps 739 mmHg 84%
    09:00 +27°C° 2.2 mm 1 mps 740 mmHg 80%
    10:00 +28°C° 2.2 mm 1 mps 740 mmHg 76%
    11:00 +29°C° 2.2 mm 1 mps 740 mmHg 74%
    12:00 +29°C° 2.2 mm 1 mps 739 mmHg 72%
    13:00 +30°C° 2.2 mm 1 mps 739 mmHg 70%
    14:00 +30°C° 1.1 mm 1 mps 738 mmHg 72%
    15:00 +30°C° 1.1 mm 1 mps 737 mmHg 73%
    16:00 +30°C° 1.1 mm 1 mps 737 mmHg 74%
    17:00 +28°C° 1.2 mm 1 mps 737 mmHg 80%
    18:00 +25°C° 1.2 mm 0 mps 738 mmHg 85%
    19:00 +23°C° 1.2 mm 0 mps 738 mmHg 91%
    20:00 +23°C° 2.5 mm 0 mps 739 mmHg 91%
    21:00 +23°C° 2.5 mm 0 mps 739 mmHg 91%
    22:00 +23°C° 2.5 mm 0 mps 740 mmHg 91%
    23:00 +23°C° 2.6 mm 0 mps 740 mmHg 91%

    28 May, Monday

    Time Temperature Precipitation Wind Pressure Humidity
    00:00 +23°C° 2.6 mm 0 mps 739 mmHg 91%
    01:00 +22°C° 2.6 mm 0 mps 739 mmHg 92%
    02:00 +22°C° 1.6 mm 0 mps 739 mmHg 92%
    03:00 +22°C° 1.6 mm 0 mps 739 mmHg 92%
    04:00 +22°C° 1.6 mm 0 mps 739 mmHg 92%
    05:00 +22°C° 1.6 mm 0 mps 739 mmHg 91%
    06:00 +23°C° 1.6 mm 0 mps 740 mmHg 90%
    07:00 +23°C° 1.6 mm 0 mps 740 mmHg 89%
    08:00 +24°C° 1.5 mm 0 mps 740 mmHg 84%
    09:00 +26°C° 1.5 mm 0 mps 740 mmHg 79%
    10:00 +27°C° 1.5 mm 0 mps 741 mmHg 73%
    11:00 +30°C° 1.3 mm 1 mps 740 mmHg 71%
    12:00 +31°C° 1.3 mm 1 mps 739 mmHg 68%
    13:00 +32°C° 1.3 mm 1 mps 738 mmHg 65%
    14:00 +31°C° 1.9 mm 1 mps 738 mmHg 68%
    15:00 +31°C° 1.9 mm 1 mps 738 mmHg 70%
    16:00 +30°C° 1.9 mm 1 mps 737 mmHg 73%
    17:00 +29°C° 3.5 mm 1 mps 738 mmHg 79%
    18:00 +27°C° 3.5 mm 1 mps 738 mmHg 85%
    19:00 +26°C° 3.5 mm 1 mps 739 mmHg 91%
    20:00 +26°C° 2.3 mm 1 mps 739 mmHg 92%
    21:00 +25°C° 2.3 mm 1 mps 740 mmHg 92%
    22:00 +25°C° 2.3 mm 1 mps 740 mmHg 92%
    23:00 +25°C° 2.5 mm 1 mps 740 mmHg 92%

    29 May, Tuesday

    Time Temperature Precipitation Wind Pressure Humidity
    00:00 +25°C° 2.5 mm 1 mps 739 mmHg 92%
    01:00 +25°C° 2.5 mm 1 mps 739 mmHg 91%
    02:00 +23°C° 2.6 mm 0 mps 739 mmHg 91%
    03:00 +23°C° 2.6 mm 0 mps 739 mmHg 91%
    04:00 +22°C° 2.6 mm 0 mps 738 mmHg 90%
    05:00 +23°C° 2.6 mm 0 mps 739 mmHg 90%
    06:00 +23°C° 2.6 mm 0 mps 739 mmHg 89%
    07:00 +23°C° 2.6 mm 0 mps 740 mmHg 89%
    08:00 +24°C° 2.6 mm 0 mps 740 mmHg 84%
    09:00 +26°C° 2.6 mm 0 mps 740 mmHg 79%
    10:00 +29°C° 2.6 mm 1 mps 740 mmHg 73%
    11:00 +29°C° 1.8 mm 1 mps 740 mmHg 72%
    12:00 +30°C° 1.8 mm 1 mps 739 mmHg 71%
    13:00 +30°C° 1.8 mm 1 mps 738 mmHg 69%
    14:00 +30°C° 1 mm 1 mps 738 mmHg 70%
    15:00 +30°C° 1 mm 1 mps 737 mmHg 70%
    16:00 +30°C° 1 mm 1 mps 737 mmHg 71%
    17:00 +29°C° 0.7 mm 1 mps 737 mmHg 77%
    18:00 +27°C° 0.7 mm 1 mps 738 mmHg 84%
    19:00 +26°C° 0.7 mm 1 mps 738 mmHg 90%
    20:00 +26°C° 1 mm 1 mps 739 mmHg 91%
    21:00 +24°C° 1 mm 0 mps 739 mmHg 92%
    22:00 +23°C° 1 mm 0 mps 740 mmHg 93%
    23:00 +23°C° 1.3 mm 0 mps 739 mmHg 94%

    30 May, Wednesday

    Time Temperature Precipitation Wind Pressure Humidity
    00:00 +23°C° 1.3 mm 0 mps 739 mmHg 95%
    01:00 +23°C° 1.3 mm 0 mps 739 mmHg 95%
    02:00 +23°C° 1.6 mm 0 mps 738 mmHg 95%
    03:00 +23°C° 1.6 mm 0 mps 738 mmHg 95%
    04:00 +23°C° 1.6 mm 0 mps 738 mmHg 95%
    05:00 +23°C° 2.1 mm 0 mps 739 mmHg 94%
    06:00 +23°C° 2.1 mm 0 mps 739 mmHg 93%
    07:00 +23°C° 2.1 mm 0 mps 740 mmHg 92%
    08:00 +26°C° 2.3 mm 1 mps 740 mmHg 89%
    09:00 +27°C° 2.3 mm 1 mps 740 mmHg 86%
    10:00 +28°C° 2.3 mm 1 mps 741 mmHg 83%
    11:00 +28°C° 2.9 mm 1 mps 740 mmHg 84%
    12:00 +27°C° 2.9 mm 1 mps 739 mmHg 85%
    13:00 +27°C° 2.9 mm 1 mps 738 mmHg 87%
    14:00 +27°C° 2.2 mm 1 mps 738 mmHg 85%
    15:00 +28°C° 2.2 mm 1 mps 737 mmHg 84%
    16:00 +28°C° 2.2 mm 1 mps 737 mmHg 82%
    17:00 +25°C° 1.5 mm 0 mps 737 mmHg 86%
    18:00 +24°C° 1.5 mm 0 mps 737 mmHg 90%
    19:00 +23°C° 1.5 mm 0 mps 738 mmHg 94%
    20:00 +23°C° 1.3 mm 0 mps 738 mmHg 94%
    21:00 +23°C° 1.3 mm 0 mps 738 mmHg 93%
    22:00 +23°C° 1.3 mm 0 mps 739 mmHg 93%
    23:00 +23°C° 2.3 mm 0 mps 739 mmHg 94%
    Show more